| time (UTC) | temp F | wind direction | speed MPH | gust MPH | rain 1hr in | rain 24hr in | rain mn in | humidity % | barometer mb |
| 20260507053040 | 73 | 0 | 0.0 | 0.0 | 0.00 | 0.00 | 0.00 | 93 | 1011.5 |
| 20260507051542 | 73 | 0 | 0.0 | 0.0 | 0.00 | 0.00 | 0.00 | 93 | 1011.7 |
| 20260507050047 | 73 | 0 | 0.0 | 0.0 | 0.00 | 0.00 | 0.00 | 93 | 1012.0 |
| 20260507044541 | 74 | 0 | 0.0 | 0.0 | 0.00 | 0.00 | 0.00 | 92 | 1012.4 |
| 20260507043043 | 74 | 0 | 0.0 | 0.0 | 0.00 | 0.00 | 0.00 | 92 | 1012.4 |
| 20260507041548 | 74 | 0 | 0.0 | 0.0 | 0.00 | 0.00 | 0.00 | 92 | 1012.4 |
| 20260507040040 | 74 | 0 | 0.0 | 0.0 | 0.00 | 0.00 | 0.00 | 92 | 1012.4 |
| 20260507034545 | 75 | 0 | 0.0 | 0.0 | 0.00 | 0.00 | 0.00 | 91 | 1012.3 |
| 20260507033043 | 75 | 0 | 0.0 | 0.0 | 0.00 | 0.00 | 0.00 | 91 | 1012.1 |
| 20260507031538 | 75 | 0 | 0.0 | 0.0 | 0.00 | 0.00 | 0.00 | 91 | 1012.2 |
| 20260507030039 | 75 | 0 | 0.0 | 3.0 | 0.00 | 0.00 | 0.00 | 91 | 1012.2 |
| 20260507024538 | 75 | 0 | 0.0 | 3.0 | 0.00 | 0.00 | 0.00 | 91 | 1012.1 |
| 20260507023040 | 76 | 0 | 0.0 | 3.0 | 0.00 | 0.00 | 0.00 | 90 | 1012.0 |
| 20260507021544 | 76 | 360 | 1.0 | 4.0 | 0.00 | 0.00 | 0.00 | 90 | 1011.9 |
| 20260507020100 | 76 | 0 | 0.0 | 5.0 | 0.00 | 0.00 | 0.00 | 90 | 1011.9 |
| 20260507014549 | 76 | 0 | 0.0 | 4.0 | 0.00 | 0.00 | 0.00 | 90 | 1011.8 |
| 20260507013046 | 76 | 360 | 1.0 | 4.0 | 0.00 | 0.00 | 0.00 | 90 | 1011.7 |
| 20260507011537 | 76 | 0 | 0.0 | 4.0 | 0.00 | 0.00 | 0.00 | 90 | 1011.8 |
| 20260507010042 | 76 | 360 | 0.0 | 4.0 | 0.00 | 0.00 | 0.00 | 89 | 1011.9 |
| 20260507004545 | 76 | 360 | 1.0 | 5.0 | 0.00 | 0.00 | 0.00 | 89 | 1011.8 |
| 20260507003038 | 77 | 360 | 2.0 | 8.0 | 0.00 | 0.00 | 0.00 | 89 | 1011.8 |
| 20260507001542 | 77 | 360 | 1.0 | 9.0 | 0.00 | 0.00 | 0.00 | 88 | 1011.7 |
| 20260507000038 | 77 | 360 | 1.0 | 5.0 | 0.00 | 0.00 | 0.00 | 88 | 1011.7 |
| 20260506234543 | 78 | 360 | 1.0 | 6.0 | 0.00 | 0.00 | 0.00 | 87 | 1011.7 |
| 20260506233043 | 78 | 360 | 1.0 | 6.0 | 0.00 | 0.00 | 0.00 | 86 | 1011.7 |
| 20260506231549 | 79 | 238 | 1.0 | 6.0 | 0.00 | 0.00 | 0.00 | 85 | 1011.7 |
| 20260506230053 | 79 | 0 | 2.0 | 9.0 | 0.00 | 0.00 | 0.00 | 84 | 1011.6 |
| 20260506224538 | 80 | 266 | 1.0 | 9.0 | 0.00 | 0.00 | 0.00 | 82 | 1011.7 |
| 20260506223052 | 82 | 0 | 0.0 | 7.0 | 0.00 | 0.00 | 0.00 | 79 | 1011.6 |
| 20260506221542 | 82 | 254 | 2.0 | 7.0 | 0.00 | 0.00 | 0.00 | 78 | 1011.6 |
| 20260506220043 | 83 | 0 | 1.0 | 7.0 | 0.00 | 0.00 | 0.00 | 77 | 1011.7 |
| 20260506214541 | 83 | 299 | 2.0 | 9.0 | 0.00 | 0.00 | 0.00 | 77 | 1011.8 |
| 20260506213054 | 83 | 244 | 1.0 | 7.0 | 0.00 | 0.00 | 0.00 | 75 | 1011.8 |
| 20260506211548 | 83 | 238 | 4.0 | 10.0 | 0.00 | 0.00 | 0.00 | 76 | 1011.7 |
| 20260506210037 | 83 | 263 | 1.0 | 8.0 | 0.00 | 0.00 | 0.00 | 77 | 1011.6 |
| 20260506204549 | 83 | 282 | 3.0 | 9.0 | 0.00 | 0.00 | 0.00 | 78 | 1011.8 |
| 20260506203047 | 82 | 267 | 4.0 | 9.0 | 0.00 | 0.00 | 0.00 | 79 | 1011.9 |
| 20260506201554 | 82 | 245 | 4.0 | 10.0 | 0.00 | 0.00 | 0.00 | 79 | 1011.9 |
| 20260506200040 | 83 | 264 | 2.0 | 7.0 | 0.00 | 0.00 | 0.00 | 79 | 1012.0 |
| 20260506194554 | 82 | 216 | 3.0 | 8.0 | 0.00 | 0.00 | 0.00 | 79 | 1012.1 |
| 20260506193041 | 83 | 244 | 3.0 | 10.0 | 0.00 | 0.00 | 0.00 | 80 | 1012.2 |
| 20260506191546 | 83 | 268 | 4.0 | 10.0 | 0.00 | 0.00 | 0.00 | 80 | 1012.3 |
| 20260506190038 | 83 | 221 | 3.0 | 9.0 | 0.00 | 0.00 | 0.00 | 80 | 1012.4 |
| 20260506184543 | 83 | 248 | 3.0 | 10.0 | 0.00 | 0.00 | 0.00 | 80 | 1012.6 |
| 20260506183056 | 82 | 245 | 3.0 | 10.0 | 0.00 | 0.00 | 0.00 | 82 | 1012.8 |
| 20260506181539 | 82 | 238 | 5.0 | 10.0 | 0.00 | 0.00 | 0.00 | 80 | 1012.9 |
| 20260506180047 | 82 | 260 | 5.0 | 10.0 | 0.00 | 0.00 | 0.00 | 80 | 1013.1 |
| 20260506174542 | 82 | 205 | 3.0 | 13.0 | 0.00 | 0.00 | 0.00 | 79 | 1013.1 |
| 20260506173050 | 82 | 251 | 4.0 | 14.0 | 0.00 | 0.00 | 0.00 | 79 | 1013.2 |
| 20260506171543 | 82 | 246 | 3.0 | 10.0 | 0.00 | 0.00 | 0.00 | 78 | 1013.3 |
| 20260506164539 | 82 | 204 | 4.0 | 13.0 | 0.00 | 0.00 | 0.00 | 77 | 1013.6 |
| 20260506163054 | 83 | 227 | 3.0 | 8.0 | 0.00 | 0.00 | 0.00 | 76 | 1013.6 |
| 20260506161543 | 83 | 209 | 3.0 | 9.0 | 0.00 | 0.00 | 0.00 | 75 | 1013.7 |
| 20260506160043 | 83 | 238 | 4.0 | 10.0 | 0.00 | 0.00 | 0.00 | 73 | 1013.6 |
| 20260506154545 | 82 | 240 | 2.0 | 7.0 | 0.00 | 0.00 | 0.00 | 75 | 1013.6 |
| 20260506153036 | 81 | 188 | 3.0 | 9.0 | 0.00 | 0.00 | 0.00 | 75 | 1013.4 |
| 20260506151545 | 82 | 260 | 2.0 | 9.0 | 0.00 | 0.00 | 0.00 | 75 | 1013.4 |
| 20260506150042 | 82 | 0 | 1.0 | 6.0 | 0.00 | 0.00 | 0.00 | 76 | 1013.4 |
| 20260506144553 | 81 | 157 | 1.0 | 8.0 | 0.00 | 0.00 | 0.00 | 76 | 1013.3 |
| 20260506143041 | 80 | 205 | 1.0 | 9.0 | 0.00 | 0.00 | 0.00 | 79 | 1013.2 |
| 20260506141539 | 79 | 219 | 3.0 | 8.0 | 0.00 | 0.00 | 0.00 | 80 | 1013.2 |
| 20260506140040 | 78 | 247 | 3.0 | 9.0 | 0.00 | 0.00 | 0.00 | 82 | 1013.1 |
| 20260506134541 | 77 | 123 | 1.0 | 7.0 | 0.00 | 0.00 | 0.00 | 84 | 1013.0 |
| 20260506133044 | 76 | 87 | 1.0 | 5.0 | 0.00 | 0.00 | 0.00 | 85 | 1013.1 |
| 20260506131541 | 75 | 360 | 1.0 | 6.0 | 0.00 | 0.00 | 0.00 | 87 | 1013.0 |
| 20260506130041 | 75 | 360 | 1.0 | 5.0 | 0.00 | 0.00 | 0.00 | 87 | 1012.9 |
| 20260506124540 | 74 | 0 | 2.0 | 6.0 | 0.00 | 0.00 | 0.00 | 87 | 1012.9 |
| 20260506123044 | 74 | 360 | 2.0 | 6.0 | 0.00 | 0.00 | 0.00 | 88 | 1012.8 |
| 20260506121549 | 74 | 0 | 0.0 | 5.0 | 0.00 | 0.00 | 0.00 | 89 | 1012.6 |
| 20260506120045 | 73 | 0 | 1.0 | 5.0 | 0.00 | 0.00 | 0.00 | 90 | 1012.4 |
| 20260506114540 | 72 | 360 | 1.0 | 6.0 | 0.00 | 0.00 | 0.00 | 91 | 1012.1 |
| 20260506113038 | 72 | 0 | 0.0 | 3.0 | 0.00 | 0.00 | 0.00 | 91 | 1012.1 |
| 20260506111536 | 72 | 0 | 0.0 | 3.0 | 0.00 | 0.00 | 0.00 | 91 | 1011.9 |
| 20260506110042 | 71 | 0 | 0.0 | 0.0 | 0.00 | 0.00 | 0.00 | 91 | 1011.9 |
| 20260506104543 | 71 | 0 | 0.0 | 1.0 | 0.00 | 0.00 | 0.00 | 91 | 1011.6 |
| 20260506103048 | 71 | 0 | 0.0 | 0.0 | 0.00 | 0.00 | 0.00 | 91 | 1011.5 |
| 20260506101538 | 71 | 0 | 0.0 | 0.0 | 0.00 | 0.00 | 0.00 | 90 | 1011.5 |
| 20260506100037 | 71 | 0 | 0.0 | 0.0 | 0.00 | 0.00 | 0.00 | 90 | 1011.4 |
| 20260506094544 | 71 | 0 | 0.0 | 1.0 | 0.00 | 0.00 | 0.00 | 89 | 1011.5 |
| 20260506093042 | 71 | 0 | 0.0 | 0.0 | 0.00 | 0.00 | 0.00 | 89 | 1011.3 |
| 20260506091537 | 72 | 0 | 0.0 | 3.0 | 0.00 | 0.00 | 0.00 | 88 | 1011.4 |
| 20260506090047 | 72 | 0 | 0.0 | 0.0 | 0.00 | 0.00 | 0.00 | 88 | 1011.4 |
| 20260506084553 | 72 | 0 | 0.0 | 2.0 | 0.00 | 0.00 | 0.00 | 86 | 1011.3 |
| 20260506083038 | 72 | 0 | 0.0 | 1.0 | 0.00 | 0.00 | 0.00 | 86 | 1011.5 |
| 20260506081544 | 72 | 0 | 0.0 | 2.0 | 0.00 | 0.00 | 0.00 | 85 | 1011.4 |
| 20260506073051 | 73 | 0 | 0.0 | 4.0 | 0.00 | 0.00 | 0.00 | 83 | 1011.3 |
| 20260506071540 | 73 | 360 | 0.0 | 3.0 | 0.00 | 0.00 | 0.00 | 82 | 1011.5 |
| 20260506061553 | 73 | 360 | 1.0 | 3.0 | 0.00 | 0.00 | 0.00 | 80 | 1012.0 |
| 20260506060221 | 74 | 0 | 0.0 | 4.0 | 0.00 | 0.00 | 0.00 | 78 | 1012.2 |